This is the latest recevied weather packets stored in our database for station/object N4ASP-13. If no packets are shown the sender has not sent any weather packets the latest 10 day(s).
| Time | Temp. | Humidity | Pressure | Rain* | Wind** | Luminosity | Snow |
|---|---|---|---|---|---|---|---|
| 1777409918 | 15° C | 89% | 1017.7 hPa | 0 mm | - | 338 W/m² | - |
| 1777409859 | 15° C | 90% | 1017.8 hPa | 0 mm | - | 318 W/m² | - |
| 1777409797 | 15° C | 89% | 1017.7 hPa | 0 mm | - | 332 W/m² | - |
| 1777409731 | 15° C | 89% | 1017.7 hPa | 0 mm | - | 343 W/m² | - |
| 1777409671 | 15° C | 89% | 1017.7 hPa | 0 mm | - | 345 W/m² | - |
| 1777409611 | 15° C | 89% | 1017.8 hPa | 0 mm | - | 341 W/m² | - |
| 1777409550 | 15° C | 90% | 1017.8 hPa | 0 mm | - | 360 W/m² | - |
| 1777409491 | 15° C | 90% | 1017.9 hPa | 0 mm | - | 352 W/m² | - |
| 1777409425 | 15° C | 90% | 1017.9 hPa | 0 mm | - | 353 W/m² | - |
| 1777409365 | 14.44° C | 90% | 1017.8 hPa | 0 mm | - | 338 W/m² | - |
| 1777409303 | 14.44° C | 90% | 1017.7 hPa | 0 mm | - | 330 W/m² | - |
| 1777409243 | 14.44° C | 90% | 1017.7 hPa | 0 mm | - | 332 W/m² | - |
| 1777409181 | 14.44° C | 90% | 1017.8 hPa | 0 mm | - | 325 W/m² | - |
| 1777409116 | 14.44° C | 89% | 1017.7 hPa | 0 mm | - | 316 W/m² | - |
| 1777409055 | 14.44° C | 90% | 1017.7 hPa | 0 mm | - | 318 W/m² | - |
| 1777408996 | 14.44° C | 90% | 1017.7 hPa | 0 mm | - | 341 W/m² | - |
| 1777408934 | 14.44° C | 90% | 1017.7 hPa | 0 mm | - | 341 W/m² | - |
| 1777408875 | 14.44° C | 90% | 1017.7 hPa | 0 mm | - | 366 W/m² | - |
| 1777408811 | 14.44° C | 90% | 1017.7 hPa | 0 mm | - | 353 W/m² | - |
| 1777408748 | 14.44° C | 90% | 1017.6 hPa | 0 mm | - | 311 W/m² | - |
| 1777408690 | 14.44° C | 90% | 1017.6 hPa | 0 mm | - | 309 W/m² | - |
| 1777408629 | 14.44° C | 90% | 1017.6 hPa | 0 mm | - | 309 W/m² | - |
| 1777408568 | 14.44° C | 90% | 1017.8 hPa | 0 mm | - | 306 W/m² | - |
| 1777408498 | 14.44° C | 90% | 1017.7 hPa | 0 mm | - | 306 W/m² | - |
| 1777408439 | 14.44° C | 90% | 1017.7 hPa | 0 mm | - | 274 W/m² | - |
* Rain latest hour (hover to see other rain measurements)
** Current wind speed in m/s (hover to see current wind gust speed)